7 * 24
多渠道服务支持
BEIDOU-3 M22 是中国北斗三号全球卫星导航系统中的一颗中圆地球轨道(MEO)卫星,属于北斗三号的组成部分之一。该卫星主要用于提供高精度定位、导航和授时服务,增强北斗系统的全球覆盖能力与稳定性。其发射进一步完善了北斗三号星座布局,提升了系统在亚太及全球范围的性能。该卫星采用先进的导航载荷与技术,具备良好的抗干扰能力和信号稳定性,为交通运输、通信、农业、应急救援等多个领域提供关键支持。
中国
(CN)
| 数据来源 | 国际轨道数据 |
| 星历时间: | 2026-09-11T20:47:45+0800 1天前 查看轨道信息 |
| 半长轴: | 27906.589km |
| 偏心率: | 0.0004831 |
| 轨道倾角: | 53.855° |
| 近地点辐角 | 43.056° |
| 升交点赤经 | 296.783° |
| 平近点角 | 317.049° |
| 近地点: | 21514.97km |
| 远地点: | 21541.934km |
| 周期: | 773.250分钟 |
| 每日圈数: | 1.86227 |